Погода в Северодвинске

Россия / Архангельская область     64°33′45″N   39°49′05″E
темп.,
°C
ветер,
м/с
пор.,
м/с
влажн.,
%
обл.,
%
осадки,
мм/ч
давл.,
гПа
погр.,
м
19 апреля, пн
пн1900:00−1ююв236328 0.0 103747
03:00−1ю23665 0.0 103759
06:00−1ю246533 0.0 1036108
09:00+4ю234677 0.0 1036527
12:00+6ююз2341100 0.0 1035818
15:00+7ююз3340100 0.0 1034881
18:00+6ю2449100 0.0 1033263
21:00+3ююз356610 0.0 103376
20 апреля, вт
вт2000:00+1ююз36725 0.0 103392
03:000ююз25745 0.0 103269
06:00+1ююз26714 0.0 1032116
09:00+6ююз34500 0.0 1031441
12:00+9ю34410 0.0 1030943
15:00+9ю34380 0.0 10281082
18:00+9ю35440 0.0 1027995
21:00+4ююв35660 0.0 102675
21 апреля, ср
ср2100:00+2ююв36720 0.0 102598
03:00+1ююв37765 0.0 1024113
06:00+1ююв39714 0.0 1022207
09:00+6юв5949100 0.0 1020700
12:00+8юв6938100 0.0 1017964
15:00+10юв51136100 0.0 10131185
18:00+8юв61349100 0.0 10111267
21:00+5юв6138192 0.3 1008973
22 апреля, чт
чт2200:00+3юв51296100 0.3 1006717
03:00+3юв51196100 1.4 1004646
06:00+3ююв51196100 1.1 1003653
09:00+3ююв41196100 2.0 1003643
12:00+3ю41096100 1.1 1003701
15:00+3ююз51083100 1.6 1005951
18:00+5ююз5975100 0.2 1006860
21:00+2ююз51193100 0.2 1008666
23 апреля, пт
пт2300:00+4ююз51079100 0.1 1009757
03:00+2ю499390 0.1 1011308
06:00+4ююв4109276 0.0 1010323
09:00+5ю51185100 0.0 1011779
12:00+9ююз4757100 0.0 10121024
15:00+10ю5755100 0.1 10131391
18:00+6ююз1392100 3.1 1012200
21:00+6в2597100 5.7 1010224